"Pseudo-MPEC" for C8W5E32

Created 2023 Feb 17 13:22:04 UT using Find_Orb

Click here for an explanation of pseudo-MPECs

 
 Astrometry: 
     C8W5E32*1C2023 02 03.49088914 20 35.711+28 11 15.00   ~23Cb 21.09GVNEOCPG96
     C8W5E32 1C2023 02 03.49604214 20 35.873+28 11 17.23   ~23Cb 21.34GVNEOCPG96
     C8W5E32 1C2023 02 03.50118714 20 36.056+28 11 19.93   ~23Cb 21.57GVNEOCPG96
     C8W5E32 1C2023 02 03.50635514 20 36.229+28 11 22.06   ~23Cb 21.80GVNEOCPG96
     C8W5E32 KC2023 02 08.49580514 23 31.060+28 50 32.03   ~28Db 21.12GVNEOCPI52
     C8W5E32 KC2023 02 08.50945714 23 31.448+28 50 38.11   ~28Db 21.52GVNEOCPI52
     C8W5E32 KC2023 02 08.52245614 23 31.859+28 50 45.02   ~28Db 21.65GVNEOCPI52
     C8W5E32 KC2023 02 08.53742714 23 32.302+28 50 52.26   ~28Db 21.80GVNEOCPI52
     C8W5E32 KC2023 02 17\6-way7T[6Z.`WNt3cFu0'#Np7HcM^pJ^2#P@_@G2OUE8!a3fC7h734
     C8W5E32 KC2023 02 17qaYsJ,2uAstrometry0J-h''@\N!n#redacted;09peT)QwttI[-734
     C8W5E32 KC2023 02 17v`n.[$YBFY#MclickT_!/ShereY?FO^for!26R-dUexplanation734

Station data:
(734) Farpoint Observatory, Eskridge  (N38.890104 W96.001400)  US/Kansas.
   Observer G. Hug. 0.69-m reflector + CCD.
(G96) Mt. Lemmon Survey  (N32.442751 W110.788720)  US/Arizona.  Observers T.
   A. Pruyne, B. M. Africano, E. J. Christensen, G. A. Farneth, D. C. Fuls,
   A. R. Gibbs, A. D. Grauer, H. Gröller, J. A. Johnson, R. A. Kowalski, S.
   M. Larson, G. J. Leonard, D. Rankin, R. L. Seaman, F. C. Shelly, K. W.
   Wierzchoś. 1.5-m reflector + 10K CCD.
(I52) Steward Observatory, Mt. Lemmon Station  (N32.442544 W110.788920)
   US/Arizona.  Observers T. A. Pruyne, B. M. Africano, E. J. Christensen, G.
   A. Farneth, D. C. Fuls, A. R. Gibbs, A. D. Grauer, H. Gröller, J. A.
   Johnson, R. A. Kowalski, S. M. Larson, G. J. Leonard, D. Rankin, R. L.
   Seaman, F. C. Shelly, K. W. Wierzchoś. 1.0-m reflector + CCD.

Orbital elements:  C8W5E32
   Perihelion 2024 Jan 19.20293 +/- 0.539 TT =  4:52:12 (JD 2460328.70293)
Epoch 2023 Feb 17.0 TT = JDT 2459992.5                           AutoNEOCP
M 301.06845379 +/- 0.19             (J2000 ecliptic)
n   0.17528564 +/- 0.000349         Peri.  181.28826 +/- 0.53
a   3.16207246 +/- 0.00419          Node    84.25571 +/- 0.09
e   0.2257904 +/- 0.00231           Incl.   32.71172 +/- 0.0036
P   5.62                   H 16.56  G  0.15   U  7.4
q 2.44810683 +/- 0.00916    Q 3.87603808 +/- 0.00696
From 11 observations 2023 Feb. 3-17; mean residual 0".18
Residuals in arcseconds: 
230203 G96  .38+  .04-    230208 I52  .17+  .19+    230217 734  .04+  .07-    
230203 G96  .01+  .15-    230208 I52  .17-  .41-    230217 734  .01-  .26+    
230203 G96  .08-  .21+    230208 I52  .06+  .14+    230217 734  .02-  .20-    
230203 G96  .31-  .01-    230208 I52  .06-  .08+    

Ephemerides (geocentric):
Date (UTC) HH   RA             Dec           delta  r     elong  mag " sig PA
---- --------  ------------   ------------  ------ ------ -----  --- --------
2023 02 17 13  14 27 19.792   +30 08 10.52  2.3552 2.9305 116.3 21.7 .097 123
2023 02 17 14  14 27 20.563   +30 08 32.95  2.3547 2.9304 116.4 21.7 .101 123
2023 02 17 15  14 27 21.332   +30 08 55.39  2.3543 2.9303 116.4 21.7 .106 123
2023 02 17 16  14 27 22.098   +30 09 17.84  2.3539 2.9303 116.4 21.7 .110 123
2023 02 17 17  14 27 22.862   +30 09 40.29  2.3534 2.9302 116.4 21.7 .114 123
2023 02 17 18  14 27 23.623   +30 10 02.76  2.3530 2.9301 116.5 21.7 .118 123
2023 02 17 19  14 27 24.381   +30 10 25.23  2.3526 2.9300 116.5 21.7 .123 123
2023 02 17 20  14 27 25.136   +30 10 47.70  2.3521 2.9299 116.5 21.7 .127 123
2023 02 17 21  14 27 25.889   +30 11 10.19  2.3517 2.9298 116.5 21.7 .131 122
2023 02 17 22  14 27 26.639   +30 11 32.68  2.3513 2.9297 116.6 21.7 .136 122
2023 02 17 23  14 27 27.386   +30 11 55.18  2.3509 2.9296 116.6 21.7 .140 122
2023 02 18 00  14 27 28.131   +30 12 17.68  2.3504 2.9295 116.6 21.7 .145 122
2023 02 18 01  14 27 28.873   +30 12 40.19  2.3500 2.9294 116.6 21.7 .149 122
2023 02 18 02  14 27 29.612   +30 13 02.71  2.3496 2.9293 116.7 21.7 .154 122
2023 02 18 03  14 27 30.348   +30 13 25.24  2.3491 2.9292 116.7 21.7 .158 122
2023 02 18 04  14 27 31.082   +30 13 47.77  2.3487 2.9291 116.7 21.7 .163 122
2023 02 18 05  14 27 31.813   +30 14 10.31  2.3483 2.9290 116.7 21.7 .168 122
2023 02 18 06  14 27 32.541   +30 14 32.86  2.3479 2.9290 116.8 21.7 .172 122
2023 02 18 07  14 27 33.267   +30 14 55.42  2.3474 2.9289 116.8 21.7 .177 122
2023 02 18 08  14 27 33.990   +30 15 17.98  2.3470 2.9288 116.8 21.7 .182 122
2023 02 18 09  14 27 34.710   +30 15 40.55  2.3466 2.9287 116.8 21.7 .186 122
2023 02 18 10  14 27 35.427   +30 16 03.12  2.3461 2.9286 116.9 21.7 .191 122
2023 02 18 11  14 27 36.142   +30 16 25.70  2.3457 2.9285 116.9 21.7 .196 121
2023 02 18 12  14 27 36.854   +30 16 48.29  2.3453 2.9284 116.9 21.7 .201 121
2023 02 18 13  14 27 37.563   +30 17 10.89  2.3449 2.9283 116.9 21.7 .206 121
2023 02 18 14  14 27 38.269   +30 17 33.49  2.3444 2.9282 117.0 21.7 .210 121
2023 02 18 15  14 27 38.973   +30 17 56.10  2.3440 2.9281 117.0 21.7 .215 121
2023 02 18 16  14 27 39.674   +30 18 18.72  2.3436 2.9280 117.0 21.7 .220 121
2023 02 18 17  14 27 40.372   +30 18 41.34  2.3431 2.9279 117.0 21.7 .225 121
2023 02 18 18  14 27 41.068   +30 19 03.97  2.3427 2.9278 117.1 21.7 .230 121
2023 02 18 19  14 27 41.760   +30 19 26.61  2.3423 2.9277 117.1 21.7 .235 121
2023 02 18 20  14 27 42.451   +30 19 49.25  2.3419 2.9277 117.1 21.7 .240 121
2023 02 18 21  14 27 43.138   +30 20 11.90  2.3414 2.9276 117.1 21.7 .245 121
2023 02 18 22  14 27 43.822   +30 20 34.56  2.3410 2.9275 117.2 21.7 .251 121
2023 02 18 23  14 27 44.504   +30 20 57.22  2.3406 2.9274 117.2 21.7 .256 121
2023 02 19 00  14 27 45.183   +30 21 19.89  2.3402 2.9273 117.2 21.7 .261 121
2023 02 19 01  14 27 45.860   +30 21 42.56  2.3397 2.9272 117.2 21.7 .266 121
2023 02 19 02  14 27 46.533   +30 22 05.25  2.3393 2.9271 117.3 21.7 .271 121
2023 02 19 03  14 27 47.204   +30 22 27.94  2.3389 2.9270 117.3 21.7 .277 121
2023 02 19 04  14 27 47.872   +30 22 50.63  2.3385 2.9269 117.3 21.7 .282 121
2023 02 19 05  14 27 48.537   +30 23 13.33  2.3380 2.9268 117.3 21.7 .287 121
2023 02 19 06  14 27 49.200   +30 23 36.04  2.3376 2.9267 117.4 21.7 .292 121
2023 02 19 07  14 27 49.860   +30 23 58.75  2.3372 2.9266 117.4 21.7 .298 121
2023 02 19 08  14 27 50.517   +30 24 21.48  2.3368 2.9265 117.4 21.7 .303 121
2023 02 19 09  14 27 51.171   +30 24 44.20  2.3364 2.9264 117.4 21.7 .309 121
2023 02 19 10  14 27 51.822   +30 25 06.94  2.3359 2.9264 117.5 21.7 .314 121
2023 02 19 11  14 27 52.471   +30 25 29.67  2.3355 2.9263 117.5 21.7 .320 121
2023 02 19 12  14 27 53.117   +30 25 52.42  2.3351 2.9262 117.5 21.7 .325 121